Wind_Speed
20 21 23 27 25 24 24 24 24 20 19 18 18 19 19 21 21 21 21 21 20 20 19 18 18 19 19 19 18 18 18 18 17 16 16 15 15 15 14 14 13 11 9 9 12 15 13 13 14 15 18 20 20 19 19 18 18 17 16 15 14 14 14 13 13 12 12 13 12 13 14 13 13 12 12 13 14 13 12 12 10 11 12 11 10
25 23 24 27 26 25 24 24 25 23 20 19 18 19 19 20 20 21 20 20 20 19 18 18 18 18 19 19 18 18 18 17 16 15 15 15 14 14 13 13 11 9 8 8 12 14 13 14 17 19 20 19 18 18 17 16 16 16 15 15 14 14 13 13 13 12 13 13 12 13 14 14 14 12 11 11 13 14 14 14 13 12 11 10 11
27 24 25 28 27 25 24 24 24 24 22 20 19 19 20 20 20 20 20 20 20 20 19 19 19 19 19 19 19 18 17 15 15 14 14 14 13 13 12 10 8 8 9 10 12 13 14 16 18 20 20 18 17 16 15 15 14 13 13 13 13 12 12 12 12 12 12 12 11 11 14 15 15 13 12 11 11 12 12 13 13 12 11 10 11
27 26 26 29 27 26 25 24 23 23 23 22 21 20 21 20 21 21 21 21 21 21 20 19 19 19 19 19 18 16 15 14 14 14 14 13 12 11 10 9 9 9 11 12 13 14 16 18 19 19 19 17 16 15 14 14 13 12 11 11 11 11 11 11 12 11 11 12 11 9 11 12 13 14 12 10 10 9 10 11 12 12 11 10 11
25 25 28 30 27 26 25 24 24 23 23 23 23 21 21 21 21 21 21 21 21 20 19 18 18 18 17 17 16 15 14 14 14 13 13 12 11 10 10 10 11 12 13 14 14 14 16 18 19 18 17 16 15 15 14 13 12 12 11 10 10 10 10 10 11 11 12 13 12 9 9 10 11 13 12 10 9 8 9 10 11 10 9 10 10
25 24 27 29 26 27 26 25 24 23 23 23 23 22 22 22 21 21 20 20 20 19 18 17 18 17 16 15 14 14 14 14 13 12 11 11 11 11 11 13 14 14 15 14 14 15 16 18 18 17 16 15 15 14 13 13 13 12 11 11 10 10 10 10 10 10 11 11 10 9 8 9 9 11 11 10 10 8 8 9 10 10 9 9 10
24 24 27 26 26 27 27 26 24 23 23 23 23 22 22 22 21 20 20 20 19 19 18 17 17 17 15 15 14 14 13 13 11 11 11 11 11 12 14 14 14 14 14 14 14 15 16 17 17 16 15 15 14 13 13 12 12 12 12 11 10 10 9 9 9 10 10 8 7 8 8 8 9 9 9 9 9 8 8 8 9 9 9 8 8
23 24 27 26 26 28 28 26 25 24 24 24 23 22 22 22 21 20 20 20 19 18 18 17 17 17 16 15 14 13 12 11 11 10 11 11 12 14 15 15 14 14 14 14 14 15 16 17 16 15 14 14 13 12 11 11 11 11 11 10 9 8 8 8 8 10 10 6 6 7 7 8 8 9 9 8 8 7 7 8 9 9 8 8 8
22 23 25 24 25 29 29 27 25 24 24 24 23 22 22 22 21 19 19 19 19 18 18 17 17 16 16 15 14 13 12 11 10 10 10 12 13 15 15 14 14 13 13 14 14 15 16 16 16 15 13 13 12 11 10 10 10 10 10 9 8 7 7 6 6 8 7 5 6 7 7 7 8 9 8 8 8 7 6 7 9 9 9 9 8
22 22 23 21 24 30 30 28 26 25 23 23 22 22 21 21 20 19 19 19 19 19 18 17 16 16 15 14 13 12 12 11 10 10 11 13 14 14 14 14 14 13 13 13 14 15 16 17 16 14 13 12 10 10 9 9 9 9 9 8 7 7 7 7 7 6 4 4 6 7 8 8 8 8 8 8 7 8 6 6 8 9 8 9 8
22 22 22 20 24 30 30 29 27 25 23 23 22 21 21 20 20 19 19 19 18 18 17 17 16 15 14 13 12 12 12 11 11 11 12 13 14 14 14 14 13 13 12 12 13 15 17 17 16 14 12 11 9 9 8 8 8 8 7 7 7 6 6 8 7 4 3 5 6 6 8 8 8 8 8 8 7 7 7 7 8 8 8 8 9
23 22 21 21 25 30 30 29 27 25 24 23 22 21 21 21 21 19 18 19 18 17 17 16 16 15 15 14 13 12 12 12 12 12 13 13 14 14 14 12 12 12 12 12 12 14 17 17 15 13 12 10 9 8 7 6 6 6 6 6 6 5 5 7 5 3 4 5 6 6 6 8 7 7 7 7 6 6 6 7 7 7 7 8 8
23 22 21 22 25 30 31 28 27 25 25 24 22 22 21 21 20 19 19 18 18 17 16 16 16 15 16 15 13 13 12 12 12 13 13 13 14 13 13 12 12 12 13 12 12 14 16 15 14 12 11 10 9 7 6 5 5 5 5 5 5 5 4 5 4 4 5 5 6 6 6 7 7 7 7 6 6 5 5 6 7 7 7 8 8
20 21 23 24 24 29 31 29 27 25 25 24 22 22 21 21 20 20 19 18 18 17 16 16 16 15 16 15 14 14 13 12 12 13 13 13 14 13 13 12 11 13 14 14 14 15 15 14 13 11 10 9 8 7 5 4 4 4 4 4 5 4 4 4 4 5 6 6 6 6 7 7 6 7 7 6 5 4 5 6 7 7 8 9 9
17 18 22 25 24 26 28 28 26 25 25 23 22 22 21 21 20 20 18 18 18 16 15 15 15 15 15 14 14 15 14 13 13 13 13 14 14 13 13 12 12 14 15 15 15 14 14 13 12 11 9 8 7 6 5 4 3 3 4 4 4 3 4 4 4 6 6 6 6 6 7 7 7 8 8 6 5 5 6 7 7 8 9 10 10
15 16 19 23 25 26 26 25 25 25 24 23 22 21 22 20 20 19 18 18 17 16 15 15 14 14 14 13 13 14 14 13 13 14 13 14 14 13 12 11 13 15 15 14 14 13 13 12 11 10 8 7 6 5 4 3 3 3 3 4 4 4 7 5 5 6 5 6 6 6 8 7 8 9 7 6 5 6 7 7 8 9 10 11 12
14 16 17 20 24 26 24 23 24 24 23 22 22 21 21 20 19 18 17 17 17 16 15 14 14 13 12 11 11 12 13 14 14 14 13 13 14 13 12 11 13 15 14 14 13 13 12 11 10 9 7 6 5 4 3 3 3 4 3 4 5 7 9 6 5 6 6 6 6 7 8 8 8 8 7 6 6 8 9 9 10 11 12 12 13
15 15 16 19 22 24 24 23 23 22 20 20 20 21 21 20 19 18 17 16 16 16 15 14 13 13 11 10 10 10 12 14 14 13 13 13 14 13 11 11 13 14 14 14 12 12 11 10 9 8 7 5 4 3 2 3 4 4 4 5 7 9 9 7 6 7 7 6 7 8 9 8 8 8 7 8 9 11 12 12 11 12 12 12 13
14 15 15 17 20 22 23 23 23 22 20 18 18 19 20 19 18 18 17 16 16 16 15 14 13 12 10 9 9 10 11 12 13 13 12 13 13 12 11 11 13 14 14 13 12 11 10 9 8 7 6 5 4 3 2 4 5 5 5 5 7 9 7 5 6 6 6 6 8 10 9 9 9 9 9 11 12 12 12 11 11 11 10 10 11
12 14 15 17 19 20 21 23 23 23 21 18 17 18 19 18 18 18 17 15 16 16 15 14 12 11 9 8 8 9 10 10 12 12 12 12 12 12 11 11 12 13 14 13 12 11 10 9 8 7 6 5 4 3 4 6 6 5 5 5 7 7 4 4 5 5 6 8 10 10 9 9 9 11 12 12 12 11 11 10 10 10 10 10 9
12 13 15 17 18 19 20 21 22 22 21 19 18 17 18 18 16 17 16 14 15 16 15 14 12 10 8 7 7 9 9 9 10 10 11 11 12 12 11 11 12 13 13 13 12 11 10 9 8 7 6 5 4 4 4 6 7 6 6 6 6 5 3 4 4 4 8 10 11 10 9 10 11 12 13 12 11 10 10 11 11 11 11 11 10
13 14 15 17 18 19 19 19 20 22 21 19 18 18 18 18 16 15 15 13 15 16 15 13 12 11 9 8 9 10 9 9 9 10 10 10 12 12 10 12 12 13 13 12 12 11 10 9 8 7 6 5 4 4 5 5 6 6 7 6 5 4 5 4 4 7 10 11 12 11 11 13 14 13 12 11 11 11 11 12 12 12 13 13 12
15 15 15 17 18 18 19 18 19 21 20 18 17 17 18 18 17 15 15 13 14 16 15 13 13 13 11 10 10 10 9 9 10 10 10 10 10 10 10 12 13 13 13 12 12 11 10 9 7 6 5 5 5 5 5 5 6 6 6 5 4 5 6 4 5 10 11 12 14 12 13 15 15 13 12 12 12 12 13 14 14 14 15 15 14
18 16 15 17 18 18 19 18 18 20 20 17 15 17 18 18 17 16 16 15 15 15 15 14 13 13 12 11 11 10 10 9 10 10 10 10 8 8 9 10 11 12 12 10 9 9 9 7 7 6 5 5 5 6 5 5 6 5 4 4 4 6 5 5 8 12 12 13 14 14 15 15 14 13 12 13 13 14 15 16 16 16 17 17 16
21 18 16 17 18 17 18 18 18 20 19 17 15 16 17 17 16 16 16 16 15 15 15 14 13 14 13 12 11 10 10 9 10 10 9 9 8 8 8 8 9 9 10 8 7 8 7 6 6 6 6 6 6 5 5 5 5 5 5 5 5 6 6 7 11 12 13 14 14 15 15 14 13 12 13 14 14 15 16 16 17 17 18 18 18
21 19 18 18 19 18 19 19 19 20 19 17 15 15 16 16 15 16 16 15 15 15 14 14 14 14 13 12 11 11 10 9 9 9 9 8 8 8 8 8 8 8 9 8 7 7 7 7 7 6 7 6 5 5 5 5 5 5 6 6 6 6 7 10 12 12 15 15 15 15 15 14 13 12 13 14 15 16 16 16 17 18 18 18 19
18 18 19 19 20 20 20 20 19 20 19 16 15 14 14 15 14 15 16 15 15 15 14 14 14 14 14 13 12 11 10 9 9 9 8 8 8 8 7 8 8 7 8 8 7 7 7 7 7 7 7 6 6 6 6 5 5 5 6 7 7 7 9 12 13 14 15 16 16 15 15 14 13 13 13 14 15 16 16 16 16 17 17 17 19
14 16 18 18 20 21 21 20 20 20 19 17 15 14 14 14 14 15 15 14 14 14 14 13 14 14 14 13 12 11 10 9 9 9 9 8 8 7 7 7 7 7 8 8 7 7 8 7 7 7 7 7 6 6 6 5 5 5 7 8 7 8 14 14 15 16 15 16 17 14 14 14 13 13 13 14 15 15 15 15 15 16 16 16 18
13 15 16 18 20 21 22 21 21 20 20 18 16 13 13 15 15 15 15 14 14 13 13 13 13 13 14 14 13 11 10 9 9 9 9 8 8 7 7 6 7 7 7 8 7 8 8 8 7 7 7 7 7 6 5 5 6 6 7 8 7 9 17 16 15 17 15 16 17 14 14 14 13 13 15 16 14 14 15 15 15 15 15 15 17
15 16 16 17 20 22 22 22 21 21 19 18 17 14 14 15 16 15 14 14 13 13 12 13 13 13 13 14 13 11 10 9 9 8 8 8 8 7 7 6 7 7 7 8 8 8 8 8 8 7 8 7 7 6 6 6 6 7 7 7 8 9 17 20 16 16 16 16 15 14 13 13 14 14 14 14 13 14 15 15 15 15 15 15 16
15 17 18 18 21 23 23 23 22 20 19 19 17 15 14 15 15 15 14 14 13 13 13 13 12 12 13 14 13 12 11 9 9 8 8 8 8 7 7 7 7 7 8 8 9 9 8 8 8 7 7 7 6 6 6 6 6 7 7 8 9 8 13 21 19 16 17 16 15 15 14 13 13 11 11 11 13 15 15 15 15 14 15 14 15
17 18 18 18 20 23 23 23 22 21 20 19 18 16 15 15 15 15 14 14 14 13 13 12 12 12 13 13 13 12 11 10 9 8 8 8 8 7 7 7 7 8 8 8 9 9 8 8 8 7 7 6 6 6 6 6 6 6 8 9 9 8 9 17 20 18 17 17 16 15 15 13 11 9 10 11 13 14 14 14 14 14 14 14 15
18 19 19 18 20 22 23 23 23 22 20 20 18 17 16 15 16 15 14 14 14 14 13 12 12 12 12 12 13 12 11 11 10 9 8 8 8 8 8 7 7 7 7 8 9 9 8 9 8 7 6 6 5 6 6 5 5 6 8 9 9 10 9 11 16 17 16 16 15 14 13 13 11 10 11 11 12 15 14 13 14 14 13 13 14
18 19 21 20 20 22 23 23 23 21 20 20 18 17 16 15 15 15 14 14 14 14 13 12 12 12 12 11 12 12 11 11 10 10 9 8 8 8 8 8 7 6 7 9 10 9 9 9 8 7 6 6 6 6 6 6 7 8 9 9 8 12 12 10 11 13 12 14 14 13 11 11 10 10 11 12 12 14 15 14 13 13 13 13 13
18 19 21 21 21 21 22 22 22 21 20 20 19 17 16 15 15 15 15 14 14 14 14 13 12 12 12 11 12 13 12 11 11 11 10 9 9 9 8 8 7 7 8 10 10 10 10 9 8 7 6 6 6 6 6 8 9 9 8 6 7 12 13 11 12 12 11 11 12 11 10 9 8 9 10 12 12 13 15 14 12 12 14 13 12
18 19 20 20 21 21 20 20 22 21 19 20 19 17 17 16 15 15 15 15 14 14 13 13 12 12 12 12 12 13 12 12 11 11 10 9 9 9 9 8 7 8 9 10 10 9 9 8 7 6 6 7 7 7 7 9 11 10 9 8 8 11 12 12 12 12 10 10 10 10 9 8 8 9 9 10 12 12 12 11 11 13 15 15 13
19 20 20 20 21 21 19 19 20 21 20 20 20 18 17 16 16 15 15 15 14 14 13 13 13 12 12 12 13 13 13 12 12 11 10 10 9 10 9 8 9 9 9 10 10 9 9 7 6 5 6 6 7 8 8 10 12 12 11 12 12 12 13 14 13 11 10 10 10 9 9 9 9 9 8 9 11 11 9 8 9 13 16 16 14
19 20 20 20 21 21 19 19 19 20 20 20 20 18 17 16 16 15 15 15 14 14 13 13 13 12 12 13 13 14 13 13 13 11 10 10 9 10 9 9 10 10 10 10 9 8 8 6 5 5 5 6 8 9 10 12 12 12 11 12 14 13 13 15 15 13 11 10 10 9 10 9 9 8 8 8 9 9 9 9 10 11 15 17 15
19 20 19 19 21 21 19 20 20 19 19 20 19 18 17 16 16 16 15 15 15 14 14 13 13 13 13 13 13 14 14 14 14 12 11 10 10 10 10 10 10 10 10 10 9 9 8 6 5 6 6 7 8 11 13 13 14 13 12 13 13 12 12 13 15 14 12 11 10 9 9 9 9 9 8 8 7 7 7 7 9 9 13 17 17
19 20 20 20 21 21 20 20 21 20 19 19 19 18 18 17 17 17 16 16 15 14 14 14 13 13 13 13 14 14 14 15 15 13 12 11 10 11 11 10 10 10 10 10 9 9 8 7 7 7 8 8 9 13 15 16 16 15 15 15 14 13 14 13 13 12 11 11 10 9 8 8 9 9 7 7 7 7 7 7 7 8 11 13 15
18 20 21 21 21 22 22 21 22 22 21 20 20 19 19 18 18 17 17 16 16 15 14 15 14 13 13 14 14 14 15 16 16 14 13 12 11 11 11 11 10 10 10 9 9 9 9 8 8 8 9 10 11 13 15 17 18 16 14 14 13 14 15 15 13 11 11 10 9 9 8 8 8 8 7 6 7 7 7 7 6 7 8 8 10
20 22 22 22 21 22 23 23 23 23 22 21 20 18 18 17 17 16 16 15 15 15 15 15 14 14 14 15 15 15 16 16 16 14 14 13 11 11 11 11 11 11 10 9 9 10 9 9 9 9 9 10 11 13 15 15 14 15 14 13 11 12 13 12 11 10 10 9 8 8 8 8 8 7 7 6 7 7 6 6 6 6 6 6 7
21 22 22 22 22 23 25 24 24 24 22 21 20 18 17 16 15 14 15 14 14 14 14 13 14 14 14 15 16 16 17 17 16 15 14 13 12 12 11 11 12 12 11 10 10 10 10 10 11 10 10 10 10 13 15 12 11 16 15 10 8 7 8 8 8 8 9 8 8 8 8 8 8 6 6 6 6 6 6 7 7 6 6 6 6
20 21 22 22 22 24 26 25 25 24 23 22 20 18 17 16 15 13 13 13 12 13 13 13 14 15 15 16 16 16 17 18 17 16 14 14 13 12 11 12 12 12 11 11 11 11 10 11 12 11 11 11 10 13 14 12 13 18 11 5 7 7 4 6 8 8 8 8 7 7 7 7 7 6 5 5 6 6 6 6 7 6 6 6 6
20 22 24 24 23 24 26 25 25 23 22 23 21 19 17 17 16 14 14 13 12 13 14 15 15 15 15 16 16 17 18 18 17 16 15 14 13 12 12 12 12 12 12 11 11 11 10 11 12 12 12 12 10 12 14 12 14 20 14 7 6 5 4 10 11 8 8 7 7 7 7 7 7 6 5 6 6 6 6 6 6 6 6 6 7
21 23 25 25 23 23 24 25 25 23 21 23 23 20 19 19 19 18 17 16 15 15 16 15 15 15 16 16 17 18 18 17 17 16 15 14 14 13 12 12 12 12 12 11 10 11 11 11 12 13 13 13 10 12 15 13 13 17 15 10 6 5 10 13 8 5 8 9 7 6 6 7 7 6 6 6 6 6 6 6 6 6 6 6 6
20 22 23 23 23 23 24 26 25 23 21 22 23 22 21 21 21 19 18 17 16 15 15 15 15 15 15 16 17 18 18 18 17 16 15 14 14 13 13 12 12 11 11 11 10 12 13 11 12 14 13 13 12 13 16 15 15 15 14 10 5 9 20 19 9 7 8 8 9 8 7 7 7 7 6 6 6 6 6 6 6 6 5 6 6
16 19 20 21 23 23 23 24 24 22 21 22 24 23 22 22 22 19 17 17 15 14 14 15 15 15 15 16 18 18 18 18 17 16 15 15 15 14 14 13 12 11 11 11 12 15 16 11 12 15 15 16 16 16 16 16 17 17 17 12 5 11 22 19 14 13 8 7 9 9 9 9 7 7 7 7 6 6 6 6 6 6 5 5 5
14 16 18 19 21 22 22 24 24 22 21 23 25 25 22 22 22 20 18 17 15 14 14 15 15 16 17 18 19 18 18 17 16 16 16 15 15 15 14 13 12 11 11 11 12 13 14 13 14 16 17 19 19 18 17 17 19 18 18 16 9 12 15 10 11 13 9 8 8 9 12 12 9 8 7 7 7 6 6 6 6 6 6 5 5
15 16 17 17 19 21 23 25 26 23 21 24 25 25 24 22 22 21 20 18 16 15 15 16 17 17 19 19 18 17 16 16 15 15 15 15 15 15 15 13 13 12 11 11 10 11 13 15 17 18 18 20 18 18 19 19 18 17 18 19 15 15 15 11 11 13 11 10 8 10 14 14 11 10 9 8 8 7 6 6 7 6 6 6 6
15 16 17 17 19 22 23 26 26 24 23 24 26 27 26 24 22 22 21 20 18 18 17 17 18 18 18 18 17 16 15 16 15 14 14 14 15 15 14 14 13 13 12 11 11 11 13 15 17 20 21 21 18 16 20 21 17 17 20 20 19 19 18 16 15 14 12 11 9 10 14 14 12 11 10 9 8 8 7 7 7 7 6 6 6
Wind_Direction
158 157 158 170 170 165 163 161 162 159 156 156 156 152 151 153 156 156 157 157 156 155 153 151 149 149 149 149 144 141 141 139 136 131 129 126 125 124 122 120 115 111 111 108 108 110 109 110 110 109 105 100 98 97 95 94 92 91 90 91 91 90 90 90 90 88 87 86 83 81 80 76 69 67 68 66 68 71 65 59 63 61 58 53 46
157 156 158 169 170 166 164 162 162 162 160 158 157 153 152 151 152 153 154 156 155 153 151 150 150 152 151 148 142 141 142 139 135 131 131 129 129 128 126 125 120 114 114 113 113 114 112 113 114 111 106 101 99 96 94 92 91 90 89 89 88 88 88 89 90 89 87 87 85 80 79 77 69 66 68 66 62 65 70 69 70 66 63 53 40
152 154 158 168 170 167 166 164 162 163 163 160 159 156 155 152 152 151 150 152 152 152 152 153 153 152 150 146 143 142 140 137 135 134 133 132 130 126 126 128 125 118 119 121 119 117 116 119 117 111 105 101 99 95 93 91 90 90 90 90 90 89 88 88 88 87 86 86 85 78 73 71 66 63 66 66 57 55 64 71 74 67 63 61 48
150 152 158 168 170 168 168 166 163 163 165 165 164 162 160 156 154 153 152 153 154 154 154 154 153 150 148 145 143 142 139 138 137 135 136 134 129 124 125 127 124 122 125 124 122 121 121 124 120 112 106 103 100 97 93 89 89 89 91 93 94 92 90 90 87 87 86 83 84 81 74 73 67 61 63 67 61 56 57 59 65 64 57 58 57
149 152 159 166 169 169 169 168 166 164 165 167 169 167 163 161 159 157 156 154 154 153 152 151 149 148 145 143 143 142 141 139 138 138 139 137 130 126 125 124 123 125 127 126 126 126 127 129 124 115 109 107 102 97 92 88 87 87 90 95 98 96 93 91 88 88 85 79 76 75 74 79 75 63 62 64 63 61 59 56 52 55 55 48 50
150 152 158 162 165 170 172 169 167 166 167 168 170 169 166 165 163 160 157 155 153 151 149 148 147 146 144 144 144 144 142 141 142 141 139 135 130 124 122 123 125 127 128 128 130 131 132 133 127 119 114 109 104 97 91 87 85 86 89 93 99 99 97 93 90 87 80 73 68 70 69 74 79 69 64 62 62 64 61 62 51 44 52 48 41
151 153 157 159 162 171 173 170 168 168 169 170 172 169 168 167 166 162 159 156 153 151 149 148 148 148 147 148 149 147 145 145 143 140 136 132 128 124 123 123 124 125 126 128 131 134 137 137 131 124 119 111 105 97 90 87 86 87 89 92 97 99 99 95 92 88 77 66 62 69 68 68 77 74 68 65 60 64 65 64 56 44 45 46 40
152 154 158 158 164 174 172 171 169 170 171 171 173 170 169 168 166 164 161 160 155 151 150 151 151 151 151 151 151 150 148 146 142 138 135 132 129 125 124 122 122 123 124 128 131 135 138 139 135 129 122 113 107 101 94 89 88 89 90 92 92 91 92 92 95 89 78 66 63 65 64 65 76 77 69 69 60 60 64 53 50 48 43 45 47
155 155 158 158 168 176 172 172 171 170 171 172 173 170 168 166 165 163 162 160 156 153 152 154 154 153 154 154 153 152 151 149 145 140 136 133 128 125 126 126 124 123 126 130 132 136 139 140 137 133 125 115 110 108 103 95 92 90 90 90 87 83 81 89 99 91 78 70 69 61 62 67 74 80 74 72 63 59 63 48 47 50 44 41 42
155 157 159 158 169 177 173 172 172 170 170 172 172 168 167 164 163 161 162 161 156 154 155 156 156 156 155 155 155 154 155 152 146 141 138 132 129 129 129 129 126 126 129 131 134 137 140 141 140 136 127 117 114 115 110 101 94 90 89 86 79 73 70 77 87 91 86 79 73 65 69 72 71 77 77 74 66 64 67 54 49 47 42 37 30
157 159 158 157 171 176 173 173 172 171 171 172 172 169 166 163 162 161 164 162 156 155 157 157 156 157 156 157 157 156 156 153 148 143 139 135 134 134 133 132 131 129 127 127 131 135 140 143 142 137 129 122 120 121 116 105 96 92 89 84 78 67 62 70 78 96 104 81 73 74 67 66 73 77 76 74 66 59 56 46 42 38 34 30 22
160 160 157 160 174 175 173 174 172 172 172 173 173 170 167 163 163 163 164 162 158 157 158 160 158 159 161 161 161 158 157 155 152 145 143 141 140 138 137 134 130 128 126 127 128 133 141 143 141 138 132 128 128 128 120 106 94 89 87 84 81 74 66 70 80 116 106 83 74 80 62 60 74 79 78 75 66 53 47 41 36 32 25 20 15
161 158 156 159 172 175 175 175 172 174 174 175 175 172 169 164 164 164 163 161 160 160 161 164 162 162 165 162 160 161 160 160 154 148 148 146 145 143 140 134 131 133 132 131 130 134 141 143 143 140 136 134 134 131 120 105 89 81 82 79 79 80 79 74 84 113 102 85 74 74 64 66 74 76 78 73 62 51 45 42 33 22 15 12 10
163 158 155 156 166 174 177 176 173 176 176 176 176 174 170 165 166 165 164 163 163 164 164 166 164 161 165 164 162 164 165 165 158 153 153 151 150 147 141 137 138 137 134 132 133 139 143 145 145 143 142 138 135 129 117 99 81 76 76 74 76 82 94 88 98 110 97 83 73 70 69 73 76 74 74 66 54 40 36 38 29 16 11 14 15
164 160 156 156 162 172 177 176 175 177 177 177 177 175 170 168 168 166 166 166 166 168 168 166 164 161 165 167 165 167 168 167 163 158 156 156 154 149 145 146 146 139 136 136 139 144 146 147 147 147 146 141 135 126 114 97 84 80 74 80 84 99 119 110 106 105 95 82 73 70 74 78 79 73 66 59 52 41 33 30 27 22 23 26 27
165 162 157 156 160 168 175 176 178 179 178 179 179 175 171 170 168 166 167 169 170 171 169 166 163 163 166 168 169 170 169 168 165 160 160 160 156 151 150 150 149 144 141 143 146 147 148 149 149 149 147 144 137 128 116 96 94 88 82 99 101 118 122 110 103 102 89 78 74 76 77 78 78 72 65 59 50 39 34 35 40 43 42 41 40
163 161 158 158 160 165 172 177 180 180 179 180 180 177 174 171 169 168 169 172 173 171 168 164 161 163 164 167 170 170 169 169 166 163 163 162 157 155 155 153 152 150 149 150 151 151 152 151 151 151 149 148 142 133 122 104 112 103 102 110 105 117 118 104 96 94 82 77 75 77 81 82 78 74 69 58 51 48 53 56 55 55 52 49 45
162 162 162 162 162 166 170 175 179 178 178 179 180 179 175 172 172 170 171 175 174 171 167 161 159 159 159 160 162 163 167 171 169 165 163 163 159 158 161 160 156 155 155 155 156 157 156 155 155 156 155 156 151 144 134 129 123 113 118 109 107 116 113 102 94 90 85 82 80 81 85 87 83 80 72 65 67 67 69 68 62 59 55 52 48
163 165 167 166 166 168 169 174 177 176 177 177 179 180 176 173 174 172 173 177 174 171 164 159 161 159 157 155 156 157 161 168 168 163 163 164 160 161 168 166 161 159 161 161 161 162 161 162 162 163 166 161 159 164 159 144 131 123 122 110 115 114 106 101 93 89 85 77 77 85 93 93 87 83 79 80 82 79 75 71 66 61 53 50 47
166 170 173 171 172 173 171 174 174 176 177 177 178 179 179 174 174 174 174 178 177 172 162 160 167 167 165 158 155 153 155 161 161 161 163 163 158 167 179 170 165 164 165 167 166 167 169 170 172 174 174 171 174 178 164 148 136 129 120 111 116 111 98 94 87 84 85 84 85 89 98 98 90 88 90 91 88 81 74 67 60 52 46 42 39
171 177 178 176 178 178 175 174 174 177 176 177 177 178 182 176 175 176 174 178 180 174 163 162 170 174 172 164 157 154 160 159 156 162 166 167 167 176 187 175 169 170 170 173 172 174 176 178 183 182 181 184 183 171 161 148 139 132 121 107 105 111 111 98 92 84 82 90 97 100 103 100 97 98 96 93 85 75 65 56 48 41 37 31 29
173 181 183 180 181 182 181 175 175 178 176 176 174 177 181 175 174 176 176 180 182 176 166 165 173 176 173 171 168 166 169 164 159 164 162 169 177 178 182 177 173 174 176 179 179 180 183 186 190 191 195 192 174 163 161 146 136 134 121 101 101 125 118 107 93 78 80 93 101 104 104 103 103 102 95 87 78 67 56 47 41 35 29 28 32
176 181 184 182 182 184 184 179 178 179 177 177 174 176 178 174 174 176 178 182 183 179 174 172 175 176 176 176 177 177 175 170 166 165 159 164 179 174 168 174 175 177 183 186 185 186 188 192 196 200 199 184 170 174 175 154 137 136 124 108 119 129 121 120 95 79 80 93 101 105 105 105 104 100 90 80 70 58 47 40 37 34 34 43 50
177 179 180 181 183 185 187 185 183 181 179 178 176 177 175 175 176 177 179 181 182 181 180 179 178 180 180 179 181 181 177 174 172 167 162 162 174 171 163 172 177 185 188 189 196 195 194 198 205 204 193 185 184 188 185 167 158 158 151 139 133 132 133 117 97 89 87 94 104 108 106 105 102 95 84 72 61 50 42 39 39 41 50 58 58
170 174 175 179 182 184 187 188 186 184 183 181 180 178 175 177 177 179 181 181 183 183 184 185 184 185 183 183 182 181 177 176 174 170 168 165 171 172 171 177 179 195 194 189 204 203 200 202 206 200 189 191 187 187 188 175 173 172 164 156 142 143 141 108 100 98 95 101 108 107 105 102 98 90 78 64 56 49 45 47 51 57 63 63 57
165 170 173 177 180 183 186 187 188 187 188 186 184 179 175 178 179 182 184 184 186 184 186 188 189 187 185 187 182 181 180 178 177 176 176 172 175 176 180 183 181 196 198 194 201 200 201 198 197 192 187 189 181 181 183 178 175 168 167 160 155 155 127 102 101 101 101 106 108 107 106 100 95 85 71 61 58 56 55 58 65 68 68 64 60
167 170 171 173 177 183 186 186 188 189 189 189 187 182 178 181 182 185 187 187 188 187 188 189 191 189 188 190 184 184 183 182 182 182 183 179 182 183 182 187 186 192 195 197 198 196 196 192 191 187 185 184 178 179 174 176 177 168 168 160 163 153 117 106 103 102 105 108 107 107 105 99 93 84 71 66 65 64 63 66 71 71 69 67 62
171 169 167 170 176 182 185 186 188 189 189 190 189 185 182 184 185 190 191 190 190 190 191 191 192 192 192 192 188 187 186 185 185 185 187 183 184 184 183 186 188 193 193 194 194 191 191 188 188 186 184 184 180 181 176 175 170 164 165 159 168 137 114 116 111 106 110 109 108 107 106 101 93 87 74 68 69 65 64 70 73 71 70 68 62
179 174 169 170 177 182 183 186 188 188 189 188 189 188 184 186 189 192 193 192 193 194 194 194 194 194 194 194 191 190 189 187 185 184 182 181 182 181 184 187 188 191 188 190 190 186 187 186 187 185 184 186 181 180 181 178 169 170 173 165 170 134 117 123 119 115 119 113 111 110 106 100 93 88 78 73 72 65 66 75 75 71 71 69 65
189 186 180 175 179 182 183 186 187 188 189 188 189 189 186 187 190 192 193 193 195 196 196 196 197 196 197 197 195 192 190 188 185 181 176 176 179 179 185 187 187 187 183 186 185 183 185 184 186 187 186 189 184 179 183 189 187 183 185 175 171 145 126 128 127 122 122 116 115 113 107 102 98 94 88 83 75 68 71 77 76 72 71 69 68
194 193 190 185 181 181 183 187 188 189 189 190 191 192 189 189 191 192 193 194 194 195 196 199 199 200 200 198 196 193 190 188 185 179 175 175 175 180 184 184 185 183 181 182 180 181 183 182 184 186 187 190 184 181 186 200 205 189 188 185 169 155 133 129 130 126 123 122 119 112 109 110 107 97 89 82 75 75 76 77 75 73 70 68 69
196 197 194 189 183 181 184 187 189 189 190 191 191 193 193 192 193 192 195 195 194 195 197 200 201 202 203 199 196 193 189 189 187 181 176 175 175 178 179 180 180 178 179 178 177 179 179 179 180 181 187 188 185 184 187 199 209 193 187 186 168 159 141 129 130 131 129 127 119 111 108 108 104 93 83 75 79 83 78 76 76 75 73 70 69
193 196 195 192 186 182 183 185 188 190 189 190 191 193 195 194 194 195 197 196 195 197 199 201 203 204 202 198 196 192 191 191 190 186 180 177 175 175 176 178 177 174 177 174 174 177 178 179 179 182 186 188 186 180 179 182 184 179 178 184 171 153 138 127 129 132 133 128 120 116 110 103 92 82 77 73 87 93 83 77 76 74 75 72 72
188 191 193 190 187 185 183 183 187 189 188 190 192 193 194 195 195 196 197 196 197 199 200 203 203 204 202 198 196 193 192 193 190 186 183 178 174 176 177 176 175 172 172 172 175 178 181 185 186 188 187 187 185 174 174 165 153 151 160 174 159 136 128 123 123 124 126 124 121 119 112 104 93 85 78 72 91 102 91 81 80 82 78 74 75
184 186 189 187 187 187 185 182 183 187 188 189 192 194 194 195 196 197 198 198 199 200 202 204 203 204 203 199 197 195 193 193 190 184 181 179 176 178 179 176 172 170 173 176 180 184 187 191 191 188 184 184 174 163 163 148 138 138 144 150 128 123 127 123 120 118 119 121 120 115 106 101 95 95 88 77 87 104 102 93 95 99 88 78 77
180 180 185 188 190 189 187 182 179 181 184 187 191 193 194 195 197 199 200 199 200 202 204 205 205 205 204 201 198 195 194 193 188 182 180 181 181 180 179 177 173 173 177 180 185 191 191 189 188 184 182 182 168 158 154 134 133 136 131 130 122 121 126 122 117 116 119 122 117 110 107 104 101 100 97 91 89 100 113 108 108 113 101 88 81
177 176 180 185 191 192 188 185 181 179 181 187 190 192 193 194 197 198 200 201 202 204 205 206 207 207 206 204 198 194 193 191 187 183 181 183 185 183 181 179 175 174 174 178 187 194 191 186 179 177 183 183 168 153 139 122 126 132 127 133 136 128 125 123 121 118 120 122 117 115 113 108 106 103 101 104 99 99 102 85 93 121 118 99 85
175 173 174 181 190 193 190 188 186 181 181 187 190 192 193 193 196 198 200 202 204 206 206 206 207 207 207 204 198 194 191 188 187 184 182 185 188 188 186 181 179 178 174 177 188 193 191 185 171 174 184 182 164 141 129 116 114 119 118 126 132 131 133 133 131 128 127 127 124 122 117 109 106 105 107 112 111 107 95 69 72 106 118 104 87
175 172 171 178 189 194 191 188 187 184 182 186 190 190 192 194 197 199 201 203 205 206 206 208 208 208 206 202 197 193 190 188 187 185 184 187 190 192 191 185 183 185 184 188 195 196 192 182 171 174 176 175 157 136 128 119 112 111 108 112 118 130 144 143 135 131 131 133 130 122 117 112 107 104 108 114 117 116 109 91 79 91 112 109 94
174 173 173 179 188 192 192 188 186 185 182 183 188 189 191 194 198 201 202 203 205 205 207 208 208 208 205 200 196 193 191 188 188 188 186 187 191 194 193 189 189 191 194 199 204 202 195 184 176 173 170 166 151 136 132 127 117 103 100 112 116 122 136 140 133 129 128 130 128 122 115 110 108 106 108 112 116 114 111 110 99 97 112 110 99
173 175 177 182 189 192 192 190 186 185 183 182 186 188 191 194 198 201 201 201 203 204 206 208 207 206 204 198 195 194 191 190 190 191 189 188 191 194 193 191 192 196 200 204 209 205 193 185 178 176 178 171 156 142 139 136 124 107 99 102 99 103 118 126 126 125 127 127 123 121 117 110 107 107 110 113 115 113 110 111 109 112 116 107 100
173 177 179 183 189 193 195 193 188 186 186 184 184 186 190 195 198 201 200 201 202 204 206 206 206 204 202 198 196 194 192 191 190 191 192 190 190 194 194 193 195 198 202 204 206 200 188 183 180 180 185 184 174 159 156 152 139 133 128 111 94 94 101 106 110 118 126 126 123 122 118 115 112 111 115 115 114 113 111 111 110 112 116 112 105
174 176 180 182 187 195 198 196 192 188 187 186 185 184 186 192 197 197 197 198 200 203 205 204 202 202 201 199 197 195 193 192 190 192 194 192 192 193 194 197 198 198 201 202 201 197 189 188 191 189 185 186 186 175 176 177 153 146 146 138 136 124 102 100 107 117 127 125 123 126 122 122 119 116 120 120 119 115 111 113 110 107 106 107 108
175 174 180 183 188 197 199 198 195 191 188 187 185 180 178 185 193 193 193 195 197 198 202 203 200 199 201 200 199 196 193 192 192 193 195 194 194 193 193 198 200 200 203 202 200 199 196 195 197 197 190 188 189 184 190 195 163 151 149 141 161 169 148 140 131 123 131 129 126 130 127 125 124 123 126 124 122 120 117 115 110 105 101 101 103
179 177 183 187 191 196 198 198 197 193 190 187 183 176 174 181 188 189 190 192 195 195 199 201 197 198 201 201 200 197 193 192 193 195 196 197 197 195 195 198 201 204 206 204 203 205 204 201 199 198 198 197 193 186 193 205 181 165 163 151 161 193 175 153 145 135 148 150 141 142 135 130 129 129 135 131 127 125 122 120 114 109 104 101 104
182 181 186 190 190 192 195 198 198 196 192 188 183 175 174 182 185 186 187 189 193 196 198 198 197 199 201 199 199 197 194 192 194 196 196 199 201 200 199 201 204 206 209 209 207 211 213 208 204 202 203 205 205 196 194 204 199 183 180 172 172 195 163 153 152 145 161 169 161 153 147 145 144 141 145 142 137 134 127 125 121 115 110 105 107
184 182 185 187 188 188 192 197 199 198 194 190 185 178 177 184 188 187 186 186 190 194 196 198 198 200 198 197 198 197 195 194 195 197 198 201 203 204 205 207 209 209 212 210 204 214 221 214 207 208 210 208 208 208 201 200 203 202 199 187 174 183 169 162 165 156 159 178 181 177 171 164 159 156 158 153 147 143 136 135 132 125 119 111 108
186 182 182 186 189 190 193 197 200 199 197 193 189 185 181 184 188 188 186 185 186 187 191 195 195 196 197 196 196 196 196 198 198 199 201 204 205 208 210 211 214 212 212 209 202 213 225 226 213 209 214 214 208 210 207 197 197 202 202 193 165 173 174 169 171 168 164 175 181 186 182 174 172 167 164 160 154 150 146 145 145 140 129 121 117
195 188 186 189 189 190 194 199 201 202 201 197 194 192 188 184 185 186 185 184 183 180 186 193 193 194 197 195 194 195 196 200 202 203 205 207 209 211 213 213 216 215 215 213 199 201 220 236 230 214 211 213 211 211 210 201 200 201 197 192 177 171 176 178 183 183 173 160 170 182 179 178 186 183 171 163 159 157 158 155 153 150 138 132 131
199 195 193 190 187 190 196 200 203 204 204 201 198 196 194 189 185 185 185 181 179 178 183 193 194 196 198 195 193 194 195 200 204 206 208 210 212 214 215 216 217 218 219 217 201 191 206 226 238 235 218 207 208 214 213 208 206 204 196 193 190 182 179 186 199 196 178 167 176 178 176 179 182 179 173 169 167 165 164 161 158 158 151 145 139
197 194 194 189 187 190 195 202 206 206 204 202 200 198 198 197 190 186 185 180 177 178 184 191 193 197 200 196 194 195 196 199 201 205 210 212 213 215 217 217 218 222 222 222 215 206 210 215 229 243 231 211 206 213 214 211 210 208 203 199 197 192 186 185 191 190 181 179 178 169 172 176 173 168 170 172 172 169 166 166 167 165 161 155 145
Height
802 804 806 807 811 812 814 816 817 819 820 822 822 823 823 824 825 826 827 828 828 829 830 831 832 833 834 835 836 836 837 837 838 838 839 839 840 840 840 841 841 841 841 842 842 843 844 843 844 845 845 845 846 846 846 846 846 846 846 846 846 847 847 847 847 847 847 846 846 846 846 845 845 845 845 844 844 843 842 842 842 842 842 841 840
799 803 805 807 810 812 814 815 817 819 820 822 823 823 823 824 825 826 827 828 829 830 831 832 833 834 835 836 836 837 838 838 839 839 840 840 840 841 841 841 842 842 842 842 843 844 844 844 845 846 846 847 847 847 847 847 847 847 847 847 847 848 848 848 848 848 848 847 847 847 846 846 846 846 846 846 845 844 844 843 843 843 843 842 841
798 803 805 807 810 812 814 815 817 818 820 822 823 823 824 825 825 826 827 829 830 831 832 833 834 835 836 836 837 838 839 839 840 840 841 841 841 842 842 842 842 843 843 843 844 844 845 845 847 847 848 848 848 848 848 848 848 848 848 848 848 849 849 849 849 849 848 848 848 847 847 847 847 847 847 847 846 846 845 844 844 844 843 843 842
798 801 804 807 810 812 814 816 817 818 820 822 823 823 824 825 825 827 827 829 830 831 832 833 835 835 837 837 838 839 840 840 841 841 841 842 842 842 843 843 843 843 843 844 844 845 846 847 848 848 849 849 849 849 849 849 849 849 849 849 849 849 850 849 850 849 849 849 848 847 848 849 848 848 848 848 848 847 846 846 845 845 844 844 843
799 802 804 807 810 812 814 816 817 818 820 822 823 824 824 825 826 827 828 829 830 832 833 834 835 836 837 838 839 840 841 841 842 842 842 842 843 843 843 844 844 844 844 845 845 846 847 848 848 849 850 850 850 850 850 850 850 850 850 850 850 850 850 850 850 850 850 849 848 848 850 850 849 849 849 849 848 848 848 847 846 846 846 845 844
799 802 804 807 810 812 814 816 817 818 820 822 823 824 825 826 827 828 829 830 831 832 833 835 836 837 838 839 840 841 842 842 842 843 843 843 844 844 844 844 845 845 845 845 846 847 848 848 849 850 850 851 851 851 851 851 851 850 851 851 851 851 851 851 850 850 850 849 849 850 851 851 850 850 849 849 849 849 849 848 848 847 847 846 846
798 801 804 807 810 811 813 815 817 819 820 822 823 824 824 826 827 828 829 830 831 832 833 835 836 838 839 840 841 842 842 843 843 844 844 844 845 845 845 846 846 846 846 846 847 848 849 849 850 851 851 852 852 852 852 852 852 851 851 851 851 851 851 851 851 851 850 850 850 851 851 851 851 851 850 850 850 850 850 849 849 848 848 847 847
799 801 804 807 809 810 813 815 817 819 820 822 823 824 825 826 827 829 830 831 831 832 834 836 837 838 840 841 842 843 843 844 844 844 845 845 845 846 846 847 847 847 847 848 848 849 850 850 851 852 852 853 853 853 853 853 852 852 852 852 852 852 852 851 851 851 850 850 852 852 852 852 852 851 851 851 851 851 850 850 849 849 849 848 847
800 802 804 807 808 810 813 815 817 818 820 822 823 824 825 826 827 829 830 831 832 833 835 836 838 839 840 841 842 843 844 844 845 845 846 846 846 847 847 848 848 848 848 849 849 850 850 851 852 853 853 854 854 854 854 854 853 853 853 853 852 852 852 852 852 851 851 852 852 852 852 852 852 852 852 852 852 852 851 851 850 850 849 848 848
800 802 805 807 808 809 812 814 816 818 820 821 823 824 825 826 828 829 831 831 832 833 835 837 838 839 840 842 843 844 844 845 845 846 846 847 847 848 848 848 849 849 849 849 850 851 851 852 852 853 854 854 855 855 855 855 854 854 854 853 853 853 852 852 852 852 852 852 853 853 853 853 853 853 853 853 853 853 852 852 851 851 850 849 848
800 803 805 807 808 809 812 814 816 818 820 821 823 824 825 826 828 830 831 831 832 834 835 837 838 839 841 842 843 844 845 845 846 847 847 847 848 848 849 849 849 849 850 850 851 851 852 852 853 854 854 855 855 855 856 856 855 855 854 854 854 853 853 853 853 852 852 853 853 853 853 853 854 854 853 853 853 853 853 853 852 852 851 850 849
800 802 804 806 807 809 812 814 816 818 819 821 822 824 825 826 828 830 831 831 832 834 836 837 838 839 841 842 843 844 845 846 846 847 848 848 849 849 849 849 850 850 851 851 852 852 852 853 854 854 855 855 856 856 856 856 856 856 855 855 854 854 854 853 853 853 853 853 854 854 854 854 854 854 854 854 854 854 854 853 853 852 852 851 850
800 801 803 805 807 810 812 814 816 818 819 821 822 824 825 826 828 830 830 831 833 834 836 837 838 839 841 842 844 845 846 846 847 847 848 848 849 849 850 850 850 851 851 852 852 853 853 854 854 855 855 856 856 856 857 857 856 856 855 855 855 854 854 853 853 853 853 854 854 854 855 855 855 854 854 855 855 855 854 854 854 853 852 851 851
801 801 802 804 807 810 812 815 816 818 819 821 822 824 825 827 829 830 831 831 833 835 836 837 838 839 841 842 844 845 846 847 847 847 848 849 849 850 850 851 851 851 852 852 853 854 854 855 855 856 856 856 856 857 857 857 857 856 856 855 855 855 854 854 853 853 854 854 855 855 855 856 855 855 855 855 855 855 855 854 854 853 853 852 851
803 802 804 804 806 810 813 816 816 818 820 821 822 824 826 827 829 830 831 832 833 835 836 837 838 840 841 842 844 845 846 847 847 848 849 849 850 851 851 851 852 852 853 853 854 855 855 856 856 856 857 857 857 857 857 857 857 856 856 856 855 855 854 853 853 854 854 855 855 855 856 856 856 856 856 856 856 855 855 855 854 854 853 852 851
804 804 805 805 807 811 814 816 818 819 820 821 823 824 826 827 829 830 831 832 834 835 837 838 839 840 841 842 843 845 846 847 847 848 849 850 850 851 852 852 852 853 853 854 855 855 856 856 857 857 857 857 857 857 857 857 857 857 856 856 855 855 854 853 854 854 854 855 855 856 856 856 856 856 857 857 856 856 856 855 855 854 853 853 852
804 806 807 807 808 811 814 816 818 820 821 822 823 825 826 827 829 830 831 832 834 836 837 838 839 840 842 842 843 845 846 847 847 848 849 850 851 852 852 852 852 853 854 855 855 856 857 857 857 858 858 858 858 858 858 858 857 857 856 856 855 855 855 854 854 854 855 855 855 856 857 857 857 857 857 857 857 857 856 856 855 855 854 853 853
804 806 807 809 810 811 814 816 818 820 822 823 824 825 826 828 829 830 831 833 835 836 838 839 840 841 842 843 844 845 846 846 847 848 849 850 851 852 852 852 853 853 854 855 856 856 857 857 858 858 858 858 858 858 858 858 857 857 857 856 856 856 855 854 854 855 855 855 856 857 857 857 857 857 858 858 858 858 857 857 856 855 855 854 854
804 806 808 810 811 813 814 816 818 820 822 823 825 826 827 828 829 830 831 833 835 837 838 840 841 842 843 843 844 845 846 847 847 848 849 851 851 852 852 852 853 853 854 855 856 856 857 857 858 858 858 858 858 858 858 858 857 857 857 857 856 856 856 855 855 855 855 855 856 857 857 857 857 858 858 858 858 858 858 858 857 856 855 855 854
804 806 808 810 812 814 814 816 818 819 822 823 825 826 827 828 829 831 832 834 835 837 839 840 841 842 843 844 845 846 847 847 848 849 850 851 852 852 852 852 853 854 854 855 855 856 857 857 857 858 858 858 858 858 858 858 857 857 857 857 857 856 856 855 855 855 855 856 857 858 858 858 858 859 859 859 859 859 858 858 857 857 856 855 855
804 806 808 810 812 814 815 816 817 819 821 822 824 826 827 828 830 831 832 834 835 837 839 840 841 842 844 844 845 847 848 848 848 849 850 851 851 852 852 852 853 853 854 855 855 856 856 857 857 858 858 858 858 858 858 858 858 857 857 857 857 857 856 856 855 854 854 856 857 858 859 859 859 860 860 859 859 859 859 858 858 857 857 856 855
803 806 808 809 811 813 815 816 817 819 820 822 823 825 826 828 830 831 833 835 836 838 839 840 841 842 844 844 846 847 848 849 849 850 850 851 851 851 851 852 853 853 854 854 855 856 856 857 857 857 858 858 858 858 858 858 858 857 857 857 857 857 857 856 855 855 855 857 858 859 860 860 860 860 860 860 860 860 859 859 858 858 857 856 855
802 804 807 808 811 813 815 816 817 819 820 821 823 824 826 827 830 831 833 835 836 838 839 840 841 842 844 844 846 847 848 849 849 850 850 851 851 850 851 851 852 853 853 854 855 855 856 856 857 857 857 858 858 858 858 858 858 857 857 857 857 857 857 856 855 856 858 859 859 861 861 861 861 861 861 861 861 861 860 859 859 858 857 857 856
799 802 805 807 809 812 814 816 817 819 820 821 823 824 825 827 829 831 833 835 836 837 839 840 841 842 843 844 845 846 847 848 849 849 850 850 850 850 851 851 852 853 853 854 855 855 856 856 857 857 857 858 858 858 857 857 858 857 857 856 856 857 856 856 856 858 859 860 861 862 863 863 862 862 862 862 862 861 861 860 859 859 858 858 857
795 800 803 806 808 811 813 816 818 819 820 821 822 823 825 827 828 830 832 834 835 837 838 839 840 841 842 844 844 845 847 847 848 849 849 850 850 851 851 852 853 853 853 854 855 855 856 857 857 857 857 858 857 857 857 856 857 857 856 856 856 856 856 856 856 858 859 861 862 863 864 864 864 863 863 863 863 862 862 861 860 860 860 859 858
793 797 800 804 806 809 812 814 817 818 820 821 822 823 824 826 828 830 832 833 835 836 837 838 839 841 842 843 844 845 846 847 848 848 849 849 850 851 851 852 853 853 853 854 855 855 856 856 856 857 857 857 857 857 856 856 856 856 856 856 856 856 856 856 858 860 860 862 864 865 865 865 865 864 864 864 863 863 863 862 862 862 861 861 860
793 794 797 801 804 808 810 813 815 817 819 820 822 823 824 826 827 829 831 832 834 835 836 837 839 840 841 842 843 844 845 846 847 847 848 848 849 850 851 851 851 852 852 853 854 854 855 855 856 856 856 856 856 856 856 856 856 856 856 855 855 856 856 858 859 861 862 863 865 866 866 866 866 865 865 865 864 864 864 864 863 863 863 862 862
793 794 796 799 802 806 809 811 814 816 818 819 821 822 823 825 827 829 830 832 833 834 835 837 838 839 840 841 842 843 844 845 846 847 847 847 848 849 850 850 850 852 851 852 853 854 854 855 855 855 856 856 856 856 856 856 856 856 856 855 855 856 857 859 860 862 864 865 866 867 867 867 867 866 866 866 866 866 866 865 865 865 864 864 863
793 794 795 797 801 804 807 809 812 814 816 817 819 821 822 824 826 828 830 831 833 834 835 836 838 839 840 841 842 843 843 844 845 846 846 847 847 848 849 849 850 851 851 852 852 853 854 854 855 855 855 855 855 856 855 855 856 856 856 855 856 856 857 859 861 863 864 865 867 868 868 868 868 867 867 867 867 867 867 867 866 866 866 865 865
792 794 796 797 799 802 805 807 810 812 814 816 818 819 821 822 824 826 828 830 831 833 834 836 837 838 839 840 841 842 843 844 844 845 845 846 846 847 848 848 849 849 850 851 851 852 853 853 854 854 854 854 854 855 855 855 855 855 855 855 856 856 857 859 861 863 865 866 867 868 868 868 868 868 868 868 868 868 868 868 868 868 867 866 866
791 794 795 796 798 800 802 805 808 810 812 814 816 818 820 821 823 825 827 828 830 832 833 835 836 837 838 839 840 841 842 843 843 844 844 845 846 846 847 848 848 849 849 850 851 851 852 853 853 853 854 854 854 854 855 854 853 854 854 855 856 856 857 859 862 864 865 867 868 868 869 869 869 868 869 869 869 869 869 869 869 869 868 868 867
790 792 795 796 797 798 801 804 806 809 811 813 815 817 819 820 822 823 825 827 828 830 832 833 835 836 837 838 839 840 841 842 843 843 843 844 845 845 846 847 847 848 849 849 850 851 851 852 852 853 853 853 854 854 854 854 853 853 853 855 856 857 858 859 862 864 865 867 868 869 869 869 869 869 869 869 869 870 870 870 870 870 869 869 869
788 790 793 795 796 797 799 802 805 807 809 811 814 816 818 819 821 822 824 825 827 828 830 832 833 835 836 837 839 839 840 841 842 842 843 843 844 845 846 846 847 847 848 849 849 850 851 852 852 852 853 853 853 853 854 854 853 853 853 854 855 856 858 860 861 863 865 866 868 869 870 870 870 870 870 870 870 870 871 871 871 870 870 870 870
785 788 791 793 795 797 798 800 803 805 808 810 812 814 816 818 819 821 823 824 826 827 829 830 832 833 835 836 837 838 840 840 841 841 842 843 843 844 845 846 846 847 847 848 849 850 851 851 852 852 852 852 853 853 853 853 854 854 854 854 854 856 859 860 861 863 865 866 867 869 870 871 872 872 871 871 871 871 871 871 871 871 871 871 871
783 786 789 791 793 795 797 798 800 803 806 808 811 813 815 816 818 819 821 823 824 826 827 829 831 832 834 835 836 837 839 839 840 841 841 842 843 843 844 845 846 846 847 848 849 849 850 850 851 851 851 852 852 853 853 853 854 855 855 855 855 857 860 861 862 864 866 867 868 869 871 872 872 873 873 872 872 871 871 871 871 871 871 872 872
781 784 787 790 792 794 795 796 798 800 803 806 809 811 813 815 816 818 819 821 823 824 826 828 829 831 832 833 835 836 837 838 839 840 840 841 842 843 844 844 845 846 847 847 848 849 849 850 850 850 850 851 851 852 853 853 854 855 855 856 857 859 861 862 864 865 867 868 869 870 871 872 873 873 873 873 873 872 872 871 871 871 871 872 872
779 782 785 788 791 793 794 796 796 798 801 805 807 809 811 813 815 816 818 820 821 823 824 826 828 829 831 832 833 835 836 837 838 839 840 840 841 842 843 844 845 845 846 847 847 848 849 849 850 850 850 850 851 852 853 853 855 855 856 857 858 860 861 863 865 867 869 870 870 871 872 872 873 873 874 874 873 873 872 872 872 872 872 872 872
777 779 782 786 789 792 793 794 796 797 800 803 805 807 809 811 813 815 817 819 820 822 823 825 826 828 829 831 832 833 834 836 837 838 839 840 840 841 842 843 844 845 845 846 847 847 848 849 849 849 850 850 851 852 853 854 856 857 859 860 860 861 863 864 865 866 869 871 871 872 872 872 873 874 874 874 874 874 873 873 873 873 873 872 872
775 777 780 784 787 790 792 793 795 797 799 802 804 806 808 810 812 814 815 817 819 820 822 823 825 827 828 829 831 832 833 834 836 837 838 839 840 841 842 842 843 844 845 845 846 847 847 848 849 849 849 850 851 852 853 855 857 859 860 862 862 864 865 865 866 867 869 871 872 873 873 873 873 873 874 874 875 875 875 875 875 875 875 874 873
772 775 778 781 785 788 790 792 793 795 798 800 802 804 806 808 810 812 814 815 817 819 821 822 824 825 826 828 829 831 832 833 834 835 836 837 839 840 841 841 842 843 844 844 845 846 846 847 848 849 849 850 852 852 853 855 858 859 861 862 863 864 866 867 868 869 870 871 872 873 873 873 873 874 875 875 875 875 875 876 876 876 876 875 874
770 773 776 780 783 786 789 790 791 793 795 797 799 802 804 806 808 810 812 813 815 817 819 821 822 824 825 826 828 829 830 831 833 834 834 836 837 839 840 841 841 842 843 844 844 845 846 846 847 848 849 850 851 852 853 854 856 859 862 864 864 865 867 869 870 871 871 872 872 873 873 874 874 874 875 875 875 875 875 876 876 877 877 877 876
766 770 774 778 781 784 787 788 789 791 792 794 796 799 801 804 806 808 810 812 814 816 817 819 821 822 823 825 826 827 828 830 831 832 833 834 836 837 838 839 840 841 842 843 843 844 845 846 847 848 849 849 850 852 853 854 855 858 861 864 867 868 869 869 871 872 872 872 872 873 874 874 874 875 875 876 876 876 876 876 876 877 877 877 877
764 768 772 776 779 782 785 786 787 788 790 792 793 796 799 802 805 806 809 810 812 814 816 817 819 820 822 823 824 825 826 828 829 831 832 833 835 836 837 838 839 840 841 842 842 843 844 845 846 847 848 848 849 851 851 852 854 857 859 863 865 867 870 871 871 872 872 872 873 873 874 874 875 875 876 876 876 876 876 876 877 877 877 877 877
762 765 769 773 776 779 782 784 785 786 787 789 791 794 797 800 804 805 808 809 811 813 815 816 817 818 820 821 823 823 825 826 828 829 830 831 833 834 836 837 838 839 840 841 841 842 843 844 845 846 847 847 848 849 850 851 853 855 857 860 862 864 867 870 871 872 872 872 873 874 874 874 875 876 876 876 877 877 877 877 877 877 877 877 877
759 761 766 769 772 775 779 782 783 784 785 787 789 792 795 799 802 804 807 808 810 811 813 814 815 817 818 820 821 822 823 825 826 827 828 830 832 833 834 835 836 837 838 839 840 840 842 843 844 844 845 846 846 848 849 850 851 853 854 856 860 861 863 866 869 871 872 872 873 874 874 875 875 876 876 877 877 877 877 877 877 877 878 878 878
756 758 762 766 769 773 777 780 782 783 784 785 787 789 792 796 799 801 803 805 807 808 810 811 813 815 816 818 820 820 821 823 824 825 827 829 830 831 832 833 834 835 837 838 839 839 840 841 842 842 843 844 845 846 847 848 850 852 852 852 854 855 857 862 866 869 871 872 873 874 874 875 875 876 876 877 877 877 877 878 878 878 878 878 878
753 756 760 763 767 770 774 777 780 781 782 783 785 786 789 793 796 798 799 802 804 805 807 809 811 813 815 816 818 819 820 821 822 824 825 827 829 830 831 832 833 834 835 837 838 838 838 839 841 841 842 843 844 844 845 846 848 849 850 850 851 851 852 857 861 863 867 870 872 874 874 874 875 875 876 876 877 877 878 878 878 878 878 878 879
751 754 758 760 764 767 771 775 778 779 781 782 783 784 786 789 793 795 797 799 801 803 806 808 810 812 813 815 816 817 818 819 820 822 824 825 827 828 829 830 831 832 833 835 836 836 836 837 839 840 841 841 842 842 842 844 844 846 848 849 850 850 851 853 854 856 860 865 869 872 873 874 875 875 875 876 876 877 877 878 878 878 879 879 879
749 752 755 758 762 766 770 773 776 777 779 780 781 783 785 787 789 792 795 797 799 801 804 807 808 810 811 812 814 815 817 818 819 820 822 823 825 826 827 828 829 830 831 833 835 836 836 835 836 838 839 838 838 839 840 840 841 842 845 847 848 850 852 853 854 855 855 859 865 868 870 872 874 875 875 875 876 876 877 877 878 878 879 879 879
748 751 753 757 761 764 768 771 773 775 777 778 780 782 784 785 787 789 791 794 796 799 802 805 806 808 809 810 812 814 815 817 818 819 820 822 823 824 825 826 827 828 830 831 833 835 836 835 834 834 835 836 836 836 837 838 839 840 841 843 845 847 850 852 853 854 854 856 860 863 865 868 871 873 874 875 875 876 876 877 877 878 878 879 879
747 750 752 755 759 762 765 768 770 773 774 776 778 780 782 784 784 786 789 791 793 796 800 802 804 806 807 809 811 812 814 815 816 818 818 820 821 822 823 824 825 826 827 829 830 831 833 834 833 832 831 833 834 834 835 835 837 838 839 839 841 843 845 847 849 852 853 853 855 858 862 866 869 871 873 874 875 875 876 876 877 877 878 878 879